Regional Weather Roundup
Issued by NWS Sioux Falls, SD

Home | Current Version | Previous Version | Text Only | Print | Product List | Glossary On
Versions: 1 2 3 4 5 6 7 8 9 10 11 12 13 14 15 16 17 18 19 20 21 22 23 24 25 26 27 28 29 30 31 32 33 34 35 36 37 38 39 40 41 42 43 44 45 46 47 48 49 50
000
ASUS43 KFSD 261910
RWRFSD

WEATHER ROUNDUP FOR SE SOUTH DAKOTA/SW MINNESOTA/NW IOWA
NATIONAL WEATHER SERVICE SIOUX FALLS SD
200 PM CDT MON SEP 26 2016

NOTE: "FAIR" INDICATES FEW OR NO CLOUDS BELOW 12,000 FEET WITH NO
SIGNIFICANT WEATHER AND OR OBSTRUCTIONS TO VISIBILITY.


SDZ038>040-050-052>070-262000-
SOUTHEAST SOUTH DAKOTA

CITY           SKY/WX    TMP DP  RH WIND       PRES   REMARKS
BROOKINGS      SUNNY     65  33  30 NW18G30   30.07F
CHAMBERLAIN    SUNNY     73  40  29 NW20      30.16F
HURON          SUNNY     73  33  23 NW25G36   30.09F
MADISON        FAIR      64  36  34 NW24G30   30.11F
MITCHELL       MOSUNNY   73  35  25 NW15G25   30.12F
SIOUX FALLS    MOSUNNY   69  41  36 NW20G33   30.10F
WINNER         FAIR      73  38  27 NW9G22    30.19F
YANKTON        MOSUNNY   72  39  30 W22       30.12F
$$

MNZ071-072-080-081-089-090-097-098-262000-
SOUTHWEST MINNESOTA

CITY           SKY/WX    TMP DP  RH WIND       PRES   REMARKS
FAIRMONT       SUNNY     65  34  31 W21G32    30.04S
JACKSON        SUNNY     66  25  20 W15G31    30.06F
LUVERNE        SUNNY     66  32  28 NW24G32   30.10F
MARSHALL       SUNNY     66  34  30 NW23G36   30.03F
MONTEVIDEO     SUNNY     68  34  28 N24G33    30.02F
PIPESTONE      SUNNY     66  25  20 NW16G29   30.08F
REDWOOD FALLS  SUNNY     67  31  26 NW28G39   29.99F
TRACY          SUNNY     67  34  30 W13G29    30.04F
WINDOM         SUNNY     66  30  26 NW23G33   30.04F
WORTHINGTON    SUNNY     65  35  33 NW28G35   30.07F
$$

IAZ001>003-012>014-020>022-031-032-NEZ013-014-SDZ071-262000-
NORTHWEST IOWA

CITY           SKY/WX    TMP DP  RH WIND       PRES   REMARKS
CHEROKEE       SUNNY     69  40  34 NW21G30   30.11F
DENISON        SUNNY     72  41  33 NW12G24   30.11F
ESTHERVILLE    SUNNY     67  34  29 W15G31    30.05F
LE MARS        SUNNY     70  39  32 W22G32    30.13F
ORANGE CITY    SUNNY     70  43  37 W18G26    30.11F
SHELDON        SUNNY     68  39  34 W20G29    30.08F
SIOUX CITY     SUNNY     73  44  35 NW17G24   30.12F
SPENCER        SUNNY     68  37  32 NW24G38   30.08F
STORM LAKE     SUNNY     70  37  30 NW22G32   30.11F
$$

ABBREVIATIONS USED IN REMARKS
   TC - TEMPERATURE IN CELSIUS
  WCI - WIND CHILL INDEX
   HX - HEAT INDEX
  VSB - VISIBILITY




USA.gov is the U.S. government's official web portal to all federal, state and local government web resources and services.